Fullerton, CA

8:45 AM PDT on October 19, 2017 (GMT -0700)
Fullerton Municipal

Weather History for KFUL - November, 2011

Change the Weather History Date:

Thursday, November 3, 2011

  Actual Average Record
Temperature  
Mean Temperature 63 °F 64 °F  
Max Temperature 75 °F 76 °F 99 °F (2010)
Min Temperature 50 °F 53 °F 46 °F (2002)
Degree Days  
Heating Degree Days 2 2  
Month to date heating degree days 2 6  
Since 1 July heating degree days 11 30  
Cooling Degree Days 0 1  
Month to date cooling degree days 3 5  
Year to date cooling degree days 1168 1236  
Growing Degree Days 12 (Base 50)    
Moisture  
Dew Point 45 °F    
Average Humidity 43    
Maximum Humidity 59    
Minimum Humidity 27    
Precipitation  
Precipitation 0.00 in 0.05 in 0.05 in (2003)
Month to date precipitation 0.00 0.17  
Year to date precipitation 6.33 10.90  
Since 1 July precipitation 0.76  
Snow  
Snow 0.00 in - - ()
Month to date snowfall 0.0  
Year to date snowfall 0.0  
Snow Depth 0.00 in    
Sea Level Pressure  
Sea Level Pressure 29.95 in    
Wind  
Wind Speed 3 mph (SSW)    
Max Wind Speed 12 mph    
Max Gust Speed 21 mph    
Visibility 10 miles    
Events      
T = Trace of Precipitation, MM = Missing Value Source: NWS Daily Summary

Daily Weather History Graph

Daily Weather History Graph

Search for Another Location

Airport or City:

Trip Planner

Search our weather history database for the weather conditions in past years. The results will help you decide how hot, cold, wet, or windy it might be!

Date:

Astronomy

Nov. 03, 2011 Rise Set
Actual Time 7:12 AM PDT 5:57 PM PDT
Civil Twilight 6:46 AM PDT 6:23 PM PDT
Nautical Twilight 6:17 AM PDT 6:53 PM PDT
Astronomical Twilight 5:48 AM PDT 7:22 PM PDT
Moon 2:07 PM PDT (11/3) 12:48 AM PDT (11/3)
Length of Visible Light 11h 36m
Length of Day
10h 44m
First Quarter, 61% of the Moon is Illuminated
Nov 3
First Quarter
Nov 10
Full
Nov 18
Last Quarter
Nov 24
New
Dec 2
First Quarter

Hourly Weather History & Observations

Time (PDT) Temp. Dew Point Humidity Pressure Visibility Wind Dir Wind Speed Gust Speed Precip Events Conditions
12:53 AM 60.1 °F 27.0 °F 28% 30.04 in 10.0 mi North 3.5 mph - N/A   Clear
1:53 AM 55.9 °F 28.9 °F 36% 30.04 in 10.0 mi Calm Calm - N/A   Clear
3:53 AM 54.0 °F 30.0 °F 40% 30.00 in 10.0 mi Calm Calm - N/A   Clear
4:53 AM 52.0 °F 30.9 °F 45% 29.99 in 10.0 mi Calm Calm - N/A   Clear
5:53 AM 51.1 °F 30.9 °F 46% 29.99 in 10.0 mi Calm Calm - N/A   Clear
6:53 AM 51.1 °F 32.0 °F 48% 30.00 in 10.0 mi Calm Calm - N/A   Clear
7:53 AM 54.0 °F 30.9 °F 41% 30.01 in 10.0 mi East 3.5 mph - N/A   Clear
8:53 AM 62.1 °F 33.1 °F 34% 30.02 in 10.0 mi East 4.6 mph - N/A   Clear
9:28 AM 64.4 °F 41.0 °F 42% 30.02 in 10.0 mi Calm Calm - N/A   Partly Cloudy
9:53 AM 66.9 °F 48.9 °F 52% 30.01 in 10.0 mi Calm Calm - N/A   Clear
10:53 AM 69.1 °F 51.1 °F 53% 30.01 in 10.0 mi Calm Calm - N/A   Clear
11:53 AM 72.0 °F 48.0 °F 43% 29.98 in 10.0 mi South 4.6 mph - N/A   Clear
12:53 PM 73.0 °F 48.0 °F 41% 29.95 in 10.0 mi Calm Calm - N/A   Clear
1:53 PM 73.0 °F 52.0 °F 48% 29.92 in 10.0 mi South 5.8 mph - N/A   Clear
2:53 PM 72.0 °F 53.1 °F 51% 29.91 in 10.0 mi SW 9.2 mph - N/A   Clear
3:53 PM 70.0 °F 51.1 °F 51% 29.89 in 10.0 mi South 8.1 mph - N/A   Clear
4:53 PM 68.0 °F 54.0 °F 61% 29.89 in 10.0 mi South 5.8 mph - N/A   Clear
5:53 PM 64.9 °F 54.0 °F 68% 29.89 in 10.0 mi SW 6.9 mph - N/A   Clear
6:53 PM 63.0 °F 54.0 °F 72% 29.91 in 10.0 mi Variable 4.6 mph - N/A   Clear
7:53 PM 62.1 °F 54.0 °F 75% 29.91 in 10.0 mi Calm Calm - N/A   Scattered Clouds
8:53 PM 64.0 °F 54.0 °F 70% 29.92 in 10.0 mi Calm Calm - N/A   Overcast
9:01 PM 62.6 °F 53.6 °F 72% 29.92 in 10.0 mi Calm Calm - N/A   Overcast
9:37 PM 62.6 °F 53.6 °F 72% 29.91 in 10.0 mi Calm Calm - N/A   Overcast
10:08 PM 62.6 °F 53.6 °F 72% 29.91 in 10.0 mi SSW 3.5 mph - N/A   Overcast
10:22 PM 62.6 °F 53.6 °F 72% 29.91 in 10.0 mi SW 3.5 mph - N/A   Overcast
10:53 PM 63.0 °F 53.1 °F 70% 29.91 in 10.0 mi SW 3.5 mph - N/A   Overcast
11:53 PM 63.0 °F 52.0 °F 67% 29.89 in 10.0 mi Calm Calm - N/A   Mostly Cloudy